User: anonymous   Login
Location: Vancouver
(49.2500°N, 123.1330°W)
Time: 21:56:40
(UTC-07:00)
Language:

SO-67 - Orbit

View from above orbital plane
View from above orbital plane
View from above satellite
View from above satellite

Ground track
Ground track

The orbit data is extracted from the following two-line orbital elements,

1 35870U 09049F   16273.82715454  .00009839  00000-0  17620-3 0  9998
2 35870  97.1162 287.3220 0001611  63.4592  62.3461 15.50160119392840
Epoch (UTC): 29 September 2016 19:51:06
Eccentricity: 0.0001611
inclination: 97.1162°
perigee height: 415 km
apogee height: 417 km
right ascension of ascending node: 287.3220°
argument of perigee: 63.4592°
revolutions per day: 15.50160119
mean anomaly at epoch: 62.3461°
orbit number at epoch: 39284

The dashed part of the orbit path shows where the satellite is in the earth's shadow,  

DLR